User: anonymous   Login
Location: Caltech
(34.1382°N, 118.1253°W)
Time: 01:14:22
(UTC-08:00)
Language:

CZ-2C R/B - Orbit

View from above orbital plane
View from above orbital plane
View from above satellite
View from above satellite

Ground track
Ground track

The orbit data is extracted from the following two-line orbital elements,

1 28480U 04046B   17023.37677498 -.00000004  00000-0  14742-4 0  9997
2 28480  98.1936 128.9357 0140892 292.0926 106.5747 14.25623542633601
Epoch (UTC): 23 January 2017 09:02:33
Eccentricity: 0.0140892
inclination: 98.1936°
perigee height: 705 km
apogee height: 907 km
right ascension of ascending node: 128.9357°
argument of perigee: 292.0926°
revolutions per day: 14.25623542
mean anomaly at epoch: 106.5747°
orbit number at epoch: 63360

The dashed part of the orbit path shows where the satellite is in the earth's shadow,  

DLR